Thomasville, PA

4:14 AM EST on February 21, 2017 (GMT -0500)
York

Weather History for KTHV - January, 2014

Change the Weather History Date:

Tuesday, January 28, 2014

  Actual Average Record
Temperature  
Mean Temperature 10 °F -  
Max Temperature 12 °F 0 °F 64 °F (1999)
Min Temperature 7 °F - -2 °F (2016)
Degree Days  
Heating Degree Days 56    
Moisture  
Dew Point -5 °F    
Average Humidity 52    
Maximum Humidity 80    
Minimum Humidity 37    
Precipitation  
Precipitation 0.00 in - - ()
Sea Level Pressure  
Sea Level Pressure 30.34 in    
Wind  
Wind Speed 6 mph (WNW)    
Max Wind Speed 12 mph    
Max Gust Speed -    
Visibility 8 miles    
Events Snow    
Averages and records for this station are not official NWS values.
T = Trace of Precipitation, MM = Missing Value Source: NWS Daily Summary

Daily Weather History Graph

Daily Weather History Graph

Search for Another Location

Airport or City:

Trip Planner

Search our weather history database for the weather conditions in past years. The results will help you decide how hot, cold, wet, or windy it might be!

Date:

Astronomy

Jan. 28, 2014 Rise Set
Actual Time 7:19 AM EST 5:22 PM EST
Civil Twilight 6:50 AM EST 5:50 PM EST
Nautical Twilight 6:17 AM EST 6:23 PM EST
Astronomical Twilight 5:45 AM EST 6:55 PM EST
Moon 4:58 AM EST (1/28) 3:09 PM EST (1/28)
Length of Visible Light 11h 00m
Length of Day
10h 02m
Waning Crescent, 7% of the Moon is Illuminated
Jan 28
Waning Crescent
Jan 30
New
Feb 6
First Quarter
Feb 14
Full
Feb 22
Last Quarter

Hourly Weather History & Observations

Time (EST) Temp. Windchill Dew Point Humidity Pressure Visibility Wind Dir Wind Speed Gust Speed Precip Events Conditions
12:53 AM 12.9 °F 1.6 °F -5.1 °F 45% 30.21 in 10.0 mi West 8.1 mph - N/A   Clear
1:53 AM 10.9 °F -0.8 °F -4.0 °F 51% 30.25 in 10.0 mi West 8.1 mph - N/A   Clear
2:53 AM 10.9 °F 0.2 °F -6.0 °F 47% 30.28 in 10.0 mi NW 6.9 mph - N/A   Clear
3:53 AM 9.0 °F -5.1 °F -5.1 °F 53% 30.30 in 10.0 mi NW 10.4 mph - N/A   Clear
4:53 AM 8.1 °F -2.0 °F -0.9 °F 67% 30.34 in 10.0 mi NW 5.8 mph - N/A   Clear
5:53 AM 8.1 °F -4.3 °F -8.0 °F 48% 30.38 in 10.0 mi WNW 8.1 mph - N/A   Clear
6:53 AM 7.0 °F -6.6 °F -7.1 °F 53% 30.40 in 10.0 mi WNW 9.2 mph - N/A   Clear
7:53 AM 7.0 °F -5.7 °F -8.0 °F 51% 30.42 in 10.0 mi WNW 8.1 mph - N/A   Clear
8:53 AM 7.0 °F -5.7 °F -9.0 °F 48% 30.45 in 10.0 mi NW 8.1 mph - N/A   Clear
9:53 AM 7.0 °F -8.3 °F -9.0 °F 48% 30.45 in 10.0 mi NW 11.5 mph - N/A   Clear
10:53 AM 8.1 °F -5.3 °F -9.0 °F 46% 30.45 in 10.0 mi WNW 9.2 mph - N/A   Clear
11:53 AM 9.0 °F 0.6 °F -9.0 °F 44% 30.43 in 10.0 mi Variable 4.6 mph - N/A   Clear
12:53 PM 10.0 °F -0.9 °F -9.0 °F 42% 30.40 in 10.0 mi WNW 6.9 mph - N/A   Clear
1:53 PM 10.9 °F - -9.0 °F 40% 30.39 in 10.0 mi Calm Calm - N/A   Overcast
2:53 PM 12.0 °F - -9.0 °F 39% 30.37 in 10.0 mi Calm Calm - N/A   Mostly Cloudy
3:53 PM 12.0 °F - -9.9 °F 37% 30.38 in 10.0 mi Calm Calm - N/A   Overcast
4:53 PM 12.0 °F - -9.9 °F 37% 30.37 in 10.0 mi Calm Calm - N/A   Overcast
5:53 PM 12.0 °F - -9.0 °F 39% 30.36 in 10.0 mi Calm Calm - N/A   Overcast
6:53 PM 12.0 °F - -7.1 °F 42% 30.36 in 10.0 mi Calm Calm - N/A   Overcast
7:53 PM 12.0 °F - -8.0 °F 41% 30.33 in 10.0 mi Calm Calm - N/A   Overcast
8:53 PM 12.0 °F - -6.0 °F 44% 30.32 in 10.0 mi Calm Calm - N/A   Overcast
9:53 PM 12.0 °F - -6.0 °F 44% 30.32 in 10.0 mi Calm Calm - N/A   Overcast
10:26 PM 10.9 °F - -0.0 °F 61% 30.28 in 2.5 mi Calm Calm - 0.00 in Snow Light Snow
10:38 PM 10.9 °F 4.7 °F 1.9 °F 67% 30.28 in 2.0 mi NW 3.5 mph - 0.00 in Snow Light Snow
10:53 PM 10.0 °F 3.6 °F 3.0 °F 73% 30.30 in 2.0 mi NW 3.5 mph - 0.00 in Snow Light Snow
11:17 PM 10.0 °F - 3.9 °F 76% 30.26 in 2.5 mi Calm Calm - 0.00 in Snow Light Snow
11:46 PM 10.0 °F - 5.0 °F 80% 30.25 in 4.0 mi Calm Calm - 0.00 in Snow Light Snow
11:53 PM 10.0 °F - 5.0 °F 80% 30.29 in 5.0 mi Calm Calm - 0.00 in   Haze